When you browse on this site, cookies collect data to enhance your experience and personalize the content and advertising you see.
Visit our Privacy Policy to learn more. By continuing to use the site, you agree to this use of cookies and data.
  • In United States
  • List of Countries
  • For 7 days
  • Water Temperature
  • Satellite Maps
  • Weather Map
  • Weather Widgets
  • user-avatar
    Login

    Hourly Weather Juneau

    Today, 21 January, Monday

    Time Temperature Precipitation Wind Pressure Humidity
    00:00 0°C° 0.4 mm 1 mps 720 mmHg 94%
    01:00 +1°C° 0.4 mm 1 mps 720 mmHg 94%
    02:00 -1°C° 0.4 mm 2 mps 720 mmHg 95%
    03:00 -1°C° 0.4 mm 2 mps 720 mmHg 95%
    04:00 +1°C° 0.3 mm 2 mps 720 mmHg 95%
    05:00 +1°C° 0.3 mm 2 mps 720 mmHg 95%
    06:00 +1°C° 0.3 mm 2 mps 720 mmHg 96%
    07:00 +1°C° 0.3 mm 2 mps 720 mmHg 96%
    08:00 +1°C° 0.3 mm 2 mps 720 mmHg 96%
    09:00 +1°C° 0.3 mm 2 mps 720 mmHg 96%
    10:00 +1°C° 0.5 mm 2 mps 720 mmHg 96%
    11:00 +1°C° 0.5 mm 2 mps 720 mmHg 97%
    12:00 +2°C° 0.5 mm 2 mps 720 mmHg 97%
    13:00 +1°C° 0.7 mm 2 mps 719 mmHg 97%
    14:00 +1°C° 0.7 mm 2 mps 719 mmHg 97%
    15:00 +1°C° 0.7 mm 2 mps 719 mmHg 96%
    16:00 +1°C° 0.7 mm 2 mps 719 mmHg 95%
    17:00 +1°C° 0.7 mm 2 mps 719 mmHg 94%
    18:00 +1°C° 0.7 mm 2 mps 719 mmHg 92%
    19:00 +1°C° 0.6 mm 2 mps 718 mmHg 92%
    20:00 -1°C° 0.6 mm 2 mps 718 mmHg 91%
    21:00 -1°C° 0.6 mm 2 mps 717 mmHg 91%
    22:00 -1°C° 0.4 mm 2 mps 717 mmHg 90%
    23:00 -1°C° 0.4 mm 2 mps 716 mmHg 89%

    Tomorrow, 22 January, Tuesday

    Time Temperature Precipitation Wind Pressure Humidity
    00:00 -1°C° 0.4 mm 3 mps 716 mmHg 88%
    01:00 -1°C° 0.3 mm 2 mps 716 mmHg 88%
    02:00 -1°C° 0.3 mm 2 mps 715 mmHg 87%
    03:00 -1°C° 0.3 mm 2 mps 715 mmHg 87%
    04:00 -2°C° 0.2 mm 2 mps 716 mmHg 87%
    05:00 -2°C° 0.2 mm 2 mps 716 mmHg 87%
    06:00 -2°C° 0.2 mm 2 mps 716 mmHg 88%
    07:00 -2°C° 0.1 mm 2 mps 717 mmHg 87%
    08:00 -2°C° 0.1 mm 2 mps 717 mmHg 87%
    09:00 -2°C° 0.1 mm 2 mps 718 mmHg 87%
    10:00 -1°C° 0.2 mm 2 mps 718 mmHg 88%
    11:00 -1°C° 0.2 mm 2 mps 719 mmHg 89%
    12:00 +2°C° 0.2 mm 1 mps 719 mmHg 90%
    13:00 +2°C° 0.1 mm 1 mps 719 mmHg 90%
    14:00 +1°C° 0.1 mm 1 mps 720 mmHg 89%
    15:00 +1°C° 0.1 mm 1 mps 720 mmHg 89%
    16:00 +1°C° 0.1 mm 1 mps 720 mmHg 88%
    17:00 +1°C° 0.1 mm 1 mps 721 mmHg 87%
    18:00 0°C° 0.1 mm 1 mps 721 mmHg 86%
    19:00 0°C° 0.2 mm 1 mps 721 mmHg 87%
    20:00 0°C° 0.2 mm 1 mps 722 mmHg 87%
    21:00 0°C° 0.2 mm 1 mps 722 mmHg 87%
    22:00 0°C° 0 mm 1 mps 723 mmHg 86%
    23:00 0°C° 0 mm 1 mps 723 mmHg 85%

    Day after tomorrow, 23 January, Wednesday

    Time Temperature Precipitation Wind Pressure Humidity
    00:00 0°C° 0 mm 1 mps 724 mmHg 84%
    01:00 0°C° 0 mm 1 mps 724 mmHg 84%
    02:00 0°C° 0 mm 1 mps 725 mmHg 83%
    03:00 0°C° 0 mm 1 mps 725 mmHg 83%
    04:00 0°C° 0 mm 1 mps 725 mmHg 84%
    05:00 0°C° 0 mm 1 mps 726 mmHg 84%
    06:00 -1°C° 0 mm 1 mps 726 mmHg 85%
    07:00 0°C° 0.1 mm 1 mps 727 mmHg 87%
    08:00 +1°C° 0.1 mm 1 mps 727 mmHg 90%
    09:00 +1°C° 0.1 mm 1 mps 728 mmHg 92%
    10:00 +2°C° 0.4 mm 1 mps 728 mmHg 94%
    11:00 +1°C° 0.4 mm 2 mps 729 mmHg 96%
    12:00 +1°C° 0.4 mm 2 mps 729 mmHg 97%
    13:00 +1°C° 0.4 mm 2 mps 729 mmHg 97%
    14:00 +1°C° 0.4 mm 2 mps 729 mmHg 97%
    15:00 +1°C° 0.4 mm 2 mps 729 mmHg 98%
    16:00 +1°C° 0 mm 2 mps 729 mmHg 97%
    17:00 +1°C° 0 mm 2 mps 730 mmHg 95%
    18:00 -1°C° 0 mm 2 mps 730 mmHg 94%
    19:00 -1°C° 0.2 mm 2 mps 730 mmHg 94%
    20:00 +1°C° 0.2 mm 1 mps 730 mmHg 93%
    21:00 +1°C° 0.2 mm 1 mps 730 mmHg 93%
    22:00 -1°C° 1.2 mm 2 mps 730 mmHg 93%
    23:00 -1°C° 1.2 mm 2 mps 729 mmHg 93%

    24 January, Thursday

    Time Temperature Precipitation Wind Pressure Humidity
    00:00 +1°C° 1.2 mm 2 mps 729 mmHg 93%
    01:00 +1°C° 0.4 mm 2 mps 729 mmHg 92%
    02:00 +1°C° 0.4 mm 2 mps 729 mmHg 91%
    03:00 -1°C° 0.4 mm 2 mps 728 mmHg 90%
    04:00 -1°C° 0 mm 2 mps 728 mmHg 89%
    05:00 -1°C° 0 mm 2 mps 727 mmHg 87%
    06:00 -2°C° 0 mm 2 mps 726 mmHg 85%
    07:00 -2°C° 0 mm 2 mps 725 mmHg 83%
    08:00 -1°C° 0 mm 2 mps 725 mmHg 80%
    09:00 -1°C° 0 mm 2 mps 724 mmHg 78%
    10:00 -1°C° 0.2 mm 2 mps 723 mmHg 79%
    11:00 +1°C° 0.2 mm 2 mps 723 mmHg 80%
    12:00 +2°C° 0.2 mm 2 mps 722 mmHg 81%
    13:00 +2°C° 0.9 mm 2 mps 722 mmHg 84%
    14:00 +1°C° 0.9 mm 2 mps 722 mmHg 87%
    15:00 +1°C° 0.9 mm 2 mps 722 mmHg 90%
    16:00 +1°C° 0.3 mm 2 mps 722 mmHg 90%
    17:00 +2°C° 0.3 mm 1 mps 722 mmHg 90%
    18:00 +2°C° 0.3 mm 1 mps 722 mmHg 91%
    19:00 +2°C° 0 mm 1 mps 723 mmHg 90%
    20:00 +2°C° 0 mm 1 mps 723 mmHg 89%
    21:00 +2°C° 0 mm 1 mps 724 mmHg 88%
    22:00 +2°C° 0 mm 1 mps 724 mmHg 88%
    23:00 +2°C° 0 mm 1 mps 724 mmHg 88%

    25 January, Friday

    Time Temperature Precipitation Wind Pressure Humidity
    00:00 +2°C° 0 mm 1 mps 725 mmHg 88%
    01:00 +2°C° 0.1 mm 1 mps 725 mmHg 89%
    02:00 +2°C° 0.1 mm 1 mps 726 mmHg 91%
    03:00 +1°C° 0.1 mm 2 mps 726 mmHg 92%
    04:00 +1°C° 0.1 mm 2 mps 725 mmHg 93%
    05:00 +2°C° 0.1 mm 2 mps 724 mmHg 93%
    06:00 +2°C° 0.1 mm 2 mps 724 mmHg 94%
    07:00 +2°C° 0.9 mm 2 mps 723 mmHg 94%
    08:00 +2°C° 0.9 mm 2 mps 723 mmHg 95%
    09:00 +2°C° 0.9 mm 2 mps 722 mmHg 95%
    10:00 +2°C° 2.4 mm 2 mps 722 mmHg 96%
    11:00 +2°C° 2.4 mm 2 mps 722 mmHg 96%
    12:00 +2°C° 2.4 mm 2 mps 721 mmHg 96%
    13:00 +2°C° 2.7 mm 2 mps 721 mmHg 97%
    14:00 +2°C° 2.7 mm 2 mps 721 mmHg 97%
    15:00 +2°C° 2.7 mm 2 mps 721 mmHg 97%
    16:00 +1°C° 1.7 mm 3 mps 721 mmHg 97%
    17:00 +1°C° 1.7 mm 3 mps 721 mmHg 97%
    18:00 +1°C° 1.7 mm 3 mps 722 mmHg 97%
    19:00 0°C° 1.1 mm 4 mps 722 mmHg 97%
    20:00 0°C° 1.1 mm 4 mps 722 mmHg 97%
    21:00 0°C° 1.1 mm 4 mps 723 mmHg 97%
    22:00 0°C° 0.6 mm 4 mps 723 mmHg 96%
    23:00 0°C° 0.6 mm 4 mps 724 mmHg 95%

    26 January, Saturday

    Time Temperature Precipitation Wind Pressure Humidity
    00:00 -1°C° 0.6 mm 4 mps 724 mmHg 94%
    01:00 -1°C° 0.4 mm 4 mps 724 mmHg 92%
    02:00 -2°C° 0.4 mm 5 mps 725 mmHg 90%
    03:00 -2°C° 0.4 mm 5 mps 725 mmHg 89%
    04:00 -2°C° 0.5 mm 5 mps 726 mmHg 90%
    05:00 -2°C° 0.5 mm 4 mps 726 mmHg 90%
    06:00 -2°C° 0.5 mm 4 mps 726 mmHg 91%
    07:00 -2°C° 0.5 mm 4 mps 727 mmHg 91%
    08:00 -2°C° 0.5 mm 5 mps 727 mmHg 91%
    09:00 -2°C° 0.5 mm 5 mps 728 mmHg 91%
    10:00 -1°C° 0.3 mm 5 mps 729 mmHg 91%
    11:00 -1°C° 0.3 mm 5 mps 730 mmHg 90%
    12:00 -2°C° 0.3 mm 6 mps 731 mmHg 89%
    13:00 -1°C° 0.4 mm 5 mps 731 mmHg 91%
    14:00 -1°C° 0.4 mm 4 mps 732 mmHg 92%
    15:00 -1°C° 0.4 mm 4 mps 732 mmHg 94%
    16:00 -1°C° 0.7 mm 4 mps 733 mmHg 95%
    17:00 -1°C° 0.7 mm 4 mps 733 mmHg 95%
    18:00 -1°C° 0.7 mm 4 mps 734 mmHg 96%
    19:00 -1°C° 1.2 mm 4 mps 734 mmHg 96%
    20:00 -1°C° 1.2 mm 4 mps 734 mmHg 95%
    21:00 -1°C° 1.2 mm 4 mps 735 mmHg 95%
    22:00 -1°C° 1.5 mm 4 mps 735 mmHg 96%
    23:00 -1°C° 1.5 mm 4 mps 735 mmHg 96%
    Show more